STARLINK-5538 (56357 NORAD) Tracking and Keplerian Element Data

This shows tracking and keplerian element data for the satellite.

Feedback or suggestion? Click here.




ElementValue
Catalog56357
NameSTARLINK-5538
Epoch Orbit181
Epoch Day127.00001157
Epoch Year2023
RAAN126.4758
Inclination97.6643
Eccentricity0.0001443
Argument of Perigee87.1449
Mean Anonmoly246.4394
Mean Motion15.68291446
Decay Rate-0.00867756
L11 56357U 23058AS 23127.00001157 -.00867756 00000+0 -86141-2 0 9995
L22 56357 97.6643 126.4758 0001443 87.1449 246.4394 15.68291446 1819



Live tracking and technical data element details for STARLINK-5538 (NORAD 56357). STARLINK-5538 can be tracked NOW for your location showing map with azimuth and elevation plus other details from your city location.







IsCatalogInMostPopularTable: catalog: 56357, numindb: 4
Update: records affected: 1



GetName: 56357 STARLINK-5538

Hit Count: updated at: Sun, 04 Jun 2023 23:29:04 GMT